Regional Weather Roundup
Issued by NWS State College, PA

Home | Current Version | Previous Version | Text Only | Print | Product List | Glossary Off
Versions: 1 2 3 4 5 6 7 8 9 10 11 12 13 14 15 16 17 18 19 20 21 22 23 24 25 26 27 28 29 30 31 32 33 34 35 36 37 38 39 40 41 42 43 44 45 46 47 48 49 50

260
ASUS41 KCTP 241910
RWRCTP

REGIONAL WEATHER ROUNDUP
NATIONAL WEATHER SERVICE STATE COLLEGE PA
300 PM EDT TUE APR 24 2018

Note: "fair" indicates few or no clouds below 12,000 feet with no
significant weather and/or obstructions to visibility.

* = STATION THAT DOES NOT REPORT PRECIPITATION /E.G. RAIN...SNOW...ETC/
    THUNDER OR FOG.

PAZ002>004-007>009-013>016-020>023-029>032-242000-
WESTERN PENNSYLVANIA

CITY           SKY/WX    TMP DP  RH WIND       PRES   REMARKS
ERIE           LGT RAIN  55  47  74 SE15      30.09F
MEADVILLE      LGT RAIN  49  48  97 E8        30.09F
FRANKLIN*      LGT RAIN  49  47  93 SE13G21   30.10F
NEW CASTLE     LGT RAIN  52  52 100 E7        30.08F
BEAVER COUNTY  DRIZZLE   50  48  93 E8G16     30.06F
BUTLER*        LGT RAIN  52  50  93 E13       30.07F
PITTSBURGH INT LGT RAIN  54  52  93 E13       30.04F
PITTSBURGH     LGT RAIN  53  50  89 SE13G21   30.04F
INDIANA*       NOT AVBL
LATROBE        LGT RAIN  54  48  82 NE7G17    30.07F
WASHINGTON CO* LGT RAIN  54  50  87 E10       30.05F
$$

PAZ004>006-010>012-017>019-024>028-033>037-041-042-045-046-049>053-242000-
CENTRAL PENNSYLVANIA

CITY           SKY/WX    TMP DP  RH WIND       PRES   REMARKS
BRADFORD       LGT RAIN  51  44  77 SE6       30.14F
DUBOIS         CLOUDY    51  47  86 SE15      30.12F FOG
CLEARFIELD     LGT RAIN  53  45  74 SE8       30.15F
JOHNSTOWN      LGT RAIN  47  44  90 E12G20    30.10F FOG
ALTOONA        LGT RAIN  54  46  74 E7        30.14F
STATE COLLEGE  CLOUDY    57  43  58 SE7G21    30.16F
WILLIAMSPORT   FAIR      65  37  35 VRB7G22   30.17F
SELINSGROVE    FAIR      62  42  47 S20       30.19F
FT INDIANTOWN  PTSUNNY   63  42  46 SE16G24   30.19F
CAPITAL CITY   PTSUNNY   63  45  51 SE20G26   30.19F
HARRISBURG     CLOUDY    61  45  55 SE20      30.19F
YORK           FAIR      61  46  57 SE16G25   30.19F
$$

PAZ038>040-043-044-047-048-054-055-060>062-067>071-242000-
EASTERN PENNSYLVANIA

CITY           SKY/WX    TMP DP  RH WIND       PRES   REMARKS
SCRANTON       FAIR      66  36  32 S14G21    30.19F
MOUNT POCONO   PTSUNNY   59  37  44 SE17G24   30.23F
ALLENTOWN      PTSUNNY   65  39  38 SE14      30.24F
QUAKERTOWN*    PTCLDY    63  43  48 SE9       30.24F
READING        FAIR      64  43  46 SE14G25   30.20F
LANCASTER      FAIR      62  46  55 SE15G23   30.20F
COATESVILLE    FAIR      61  43  51 SE14G22   30.23F
POTTSTOWN      FAIR      62  42  47 S9        30.25F
BLUE BELL      FAIR      61  43  51 SE8G20    30.26F
DOYLESTOWN     FAIR      62  43  49 VRB5      30.24F
WILLOW GROVE   NOT AVBL
NORTH PHILA    PTSUNNY   65  44  46 SE12G18   30.27F
PHILADELPHIA   CLOUDY    63  45  51 SE13      30.25F
$$




USA.gov is the U.S. government's official web portal to all federal, state and local government web resources and services.